Sigonella, Italy

12:51 AM CET on January 20, 2018 (GMT +0100)
Sigonella Mil

Weather History for LICZ - December, 2012

Change the Weather History Date:

Sunday, December 23, 2012

  Actual Average Record
Temperature  
Mean Temperature 51 °F -  
Max Temperature 66 °F 60 °F 69 °F (1996)
Min Temperature 36 °F 42 °F 33 °F (2017)
Degree Days  
Heating Degree Days 14    
Growing Degree Days 1 (Base 50)    
Moisture  
Dew Point 40 °F    
Average Humidity 74    
Maximum Humidity 100    
Minimum Humidity 21    
Precipitation  
Precipitation 0.00 in 0.08 in - ()
Sea Level Pressure  
Sea Level Pressure 30.15 in    
Wind  
Wind Speed 4 mph ()    
Max Wind Speed 9 mph    
Max Gust Speed -    
Visibility 6.9 miles    
Events      
Averages and records for this station are not official NWS values.
T = Trace of Precipitation, MM = Missing Value Source: Averaged Metar Reports

Daily Weather History Graph

Daily Weather History Graph

Search for Another Location

Airport or City:

Trip Planner

Search our weather history database for the weather conditions in past years. The results will help you decide how hot, cold, wet, or windy it might be!

Date:

Astronomy

Dec. 23, 2012 Rise Set
Actual Time 7:12 AM CET 4:47 PM CET
Civil Twilight 6:42 AM CET 5:16 PM CET
Nautical Twilight 6:10 AM CET 5:49 PM CET
Astronomical Twilight 5:38 AM CET 6:21 PM CET
Moon 1:25 PM CET (12/23) 2:41 AM CET (12/23)
Length of Visible Light 10h 33m
Length of Day
9h 35m
Waxing Gibbous, 79% of the Moon is Illuminated
Dec 23
Waxing Gibbous
Dec 28
Full
Jan 5
Last Quarter
Jan 11
New
Jan 19
First Quarter

Hourly Weather History & Observations

Time (CET) Temp. Windchill Dew Point Humidity Pressure Visibility Wind Dir Wind Speed Gust Speed Precip Events Conditions
12:55 AM 41.0 °F 39.0 °F 41.0 °F 100% 30.09 in 6.2 mi NNE 3.5 mph - N/A   Partly Cloudy
1:00 AM 41 °F - 41 °F 100% 30.10 in 9 mi NNE 3.5 mph - -   Scattered Clouds
1:55 AM 41.0 °F - 41.0 °F 100% 30.09 in - NNW 2.3 mph - N/A   Clear
2:55 AM 41.0 °F 39.0 °F 41.0 °F 100% 30.09 in - WSW 3.5 mph - N/A   Clear
3:55 AM 41.0 °F 35.2 °F 39.2 °F 93% 30.12 in - SSW 9.2 mph - N/A   Clear
4:00 AM 41 °F - 39 °F 92% 30.14 in 9 mi SSW 9.2 mph - -  
4:55 AM 41.0 °F - 37.4 °F 87% 30.09 in - WNW 2.3 mph - N/A   Clear
5:55 AM 39.2 °F - 39.2 °F 100% 30.12 in - NE 2.3 mph - N/A   Clear
6:55 AM 39.2 °F 33.6 °F 39.2 °F 100% 30.12 in - West 8.1 mph - N/A   Clear
7:00 AM 40 °F - 40 °F 100% 30.14 in 9 mi West 8.1 mph - -  
7:55 AM 42.8 °F - 39.2 °F 87% 30.15 in 6.2 mi ESE 2.3 mph - N/A   Partly Cloudy
8:55 AM 50.0 °F - 42.8 °F 76% 30.15 in - NW 2.3 mph - N/A   Clear
9:55 AM 53.6 °F - 44.6 °F 72% 30.15 in - NNE 2.3 mph - N/A   Clear
10:00 AM 54 °F - 44 °F 60% 30.18 in 6 mi NNE 2.3 mph - -   Clear
10:55 AM 59.0 °F - 42.8 °F 55% 30.18 in - ENE 5.8 mph - N/A   Clear
11:55 AM 60.8 °F - 37.4 °F 42% 30.15 in - Calm Calm - N/A   Clear
12:55 PM 64.4 °F - 33.8 °F 32% 30.15 in - East 3.5 mph - N/A   Clear
1:00 PM 64 °F - 34 °F 21% 30.16 in 6 mi East 3.5 mph - -   Clear
1:55 PM 64.4 °F - 33.8 °F 32% 30.12 in - NE 2.3 mph - N/A   Clear
2:55 PM 64.4 °F - 33.8 °F 32% 30.12 in - ENE 4.6 mph - N/A   Clear
3:55 PM 60.8 °F - 37.4 °F 42% 30.12 in - East 6.9 mph - N/A   Clear
4:00 PM 61 °F - 37 °F 28% 30.15 in 6 mi East 6.9 mph - -   Mostly Cloudy
4:55 PM 59.0 °F - 37.4 °F 45% 30.12 in 6.2 mi Calm Calm - N/A   Mostly Cloudy
5:55 PM 53.6 °F - 44.6 °F 72% 30.15 in - SW 3.5 mph - N/A   Clear
6:55 PM 48.2 °F - 44.6 °F 87% 30.15 in - WNW 4.6 mph - N/A   Clear
7:00 PM 49 °F - 45 °F 82% 30.17 in 6 mi WNW 4.6 mph - -   Mostly Cloudy
7:55 PM 48.2 °F - 44.6 °F 87% 30.18 in - NNW 2.3 mph - N/A   Clear
8:55 PM 46.4 °F 42.4 °F 39.2 °F 76% 30.18 in - NW 8.1 mph - N/A   Clear
9:55 PM 44.6 °F 41.4 °F 41.0 °F 87% 30.21 in - West 5.8 mph - N/A   Clear
10:00 PM 44 °F - 41 °F 86% 30.22 in 6 mi West 5.8 mph - -   Clear
10:55 PM 41.0 °F 36.4 °F 41.0 °F 100% 30.21 in - WSW 6.9 mph - N/A   Clear
11:55 PM 42.8 °F 39.3 °F 42.8 °F 100% 30.21 in - SSW 5.8 mph - N/A   Clear